Location: Buckeye Ditch
(40.9104°N, 122.9517°W)
Time: 19:40:00
(UTC+00:00)

BlueWalker 3 - Pass Details

Date: 27 June 2024
Orbit: 480 x 491 km, 53.2° (Epoch: 24 July)

Event Time Altitude Azimuth Distance (km) Brightness Sun altitude
Rises 07:07:18 0° 314° (NW) 2,541 6.5 -23.9°
Reaches altitude 10° 07:09:56 10° 332° (NNW) 1,659 5.6 -24.0°
Maximum altitude 07:12:43 19° 20° (NNE) 1,187 4.4 -24.2°
Enters shadow 07:15:05 12° 64° (ENE) 1,546 4.5 -24.3°
